STARLINK-32118, 60280

Orbit data source: Space-Track

STARLINK-32118, 60280 is a payload satellite owned by SpaceX/Seattle (US) in LEO that was launched on Sun, 28 Jul 2024 UTC via an FALCON 9 launch vehicle from the Air Force Eastern Test Range (AFETR). Payload-class satellites include a variety of spacecraft equipped with specific instruments for various scientific and technological missions. These include communications satellites like Starlink; space stations such as the ISS; scientific satellites like the Hubble; Earth observation satellites from companies like Planet Labs, Umbra, and HawkEye 360; GPS; miniature CubeSats for education and research; and military/defense satellites.

Loading next visibility...
Identifier
60280, 2024-132C
Orbit
LEO
Country
Flag of USUS
Related business
Manufacturer
SpaceX/Seattle
Mission
Operational spacecraft
Bus & Motor
STARLINK V2M, Unknown motor
Mass
730 kg wet, ~700 kg dry
Launch date (UTC)
2024-07-28 (1 year ago)
Launch vehicle
FALCON 9
Launch site
Air Force Eastern Test Range (AFETR)
Object type
Payload
Rocket body
Debris
Shape & HBR
Unknown
Radar Cross Section
Large (>1 m²)

Expand to show TLE details & history
Last TLE update: 19 hours ago

TLE from 19 hours ago
0 STARLINK-32118
1 60280U 24132C   25261.06951964  .00004879  00000-0  17674-3 0  9990
2 60280  53.1586 134.0819 0001082 101.5194 258.5929 15.30202663 65137
Epoch: 2025-09-18T01:40Z
TLE epoch observation values (Epoch: 2025-09-18T01:40:06.496Z)
Latitude
0.00002°
Longitude
111.81844°
Altitude
476.253 km
Speed
7.629 km/s
True Right ascension
08h 56m 19s
True Declination
0° 00' 00"
Sunlit
Object was in daylight at epoch
Visualization orbit readout
Latitude
Unknown
Longitude
Unknown
Altitude
Unknown
Speed
Unknown
Apparent Right ascension
Unknown
Apparent Declination
Unknown
Sunlit
N/A
Visualization observer readout
Local Sidereal Time
13:32:45
Azimuth
Unknown
Elevation
Unknown
Doppler factor
Unknown
Orbital elements
Apogee altitude
476.205 km
Perigee altitude
474.722 km
Semi-major axis
6,853.601 km
Eccentricity
0.00011
Inclination
53.1586°
RAAN
134.0819°
Arg. of periapsis
101.5194°
True anomaly
258.58075°
Mean anomaly
258.5929°
Eccentric anomaly
258.58682°
Mean motion
3.8253 °/min
Orbital period
94.11 mins
BSTAR
0.00017674
Loading maneuver chart data...
Computing Atmospheric mass density...
Loading historical data...
Loading historical data...
Loading historical data...
Loading historical data...
Loading historical data...
Loading historical data...
Loading historical data...

Documentation

Showing up to 5 results
|